Yellowknife Airport
CYZF : rendu visible

Aérodrome :











RETROUVEZ-NOUS SUR...

 
LOGIN :

S'inscrire | Disclaimer

   EN    FR    IT 

 









Légende :    VFR   VFR Marginal   IFR   IFR Intensif   IFR Très Intensif
Visi : 
Plafond : 
>= 8 km
>= 3000ft
5 à 8 km
1000 à 3000 ft
1500m à 5 km
500 à 1000 ft
800 à 1500m
200 à 500 ft
< 800m
< 200 ft
Symboles :   Orages  Brouillard  Fortes neiges  Fortes précipitations  Vent > 20 kt






- Altitude de l'aérodrome : 675 ft
- Code IATA : YZF


CYZF - Yellowknife

DERNIER METAR :
  • 290600Z 00000KT 15SM SKC M30/M34 A3024 RMK SLP274

METARs EXPIRÉS :
  • 290500Z 16005KT 15SM SKC M28/M31 A3024 RMK SLP274
  • 290400Z 17003KT 150V220 15SM SKC M27/M30 A3023 RMK SLP272

TAF TAF CYZF
Valide du 29 à 06h jusqu'au 30 à 06h UTC


290538Z 2906/3006 VRB03KT P6SM SCT240
FM291500 03008KT P6SM BKN160 RMK NXT FCST BY 291200Z



MET'MAP, la Météo Aéronautique d'un coup d'oeil ! - Copyright ORBIFLY Décembre 2007 - Disclaimer

ORBIFLY MET'MAP TEAM :

Programmation & Développement : Alexandra Zaïnal
Sur une idée originale de : Baudouin d'Aumeries
Assistance à la programmation : Marc-Olivier Méhu
Soutien technique & logistique : Manuel Goepfert

Contact : metmap@orbifly.com




SOURCES & CREDITS :

   NOAA       Earth
Advisory